Tracking 19572 objects as of 23-Feb-2019
HD Live streaming from Space Station
objects crossing your sky now

THORAD DELTA 1 DEB

Track THORAD DELTA 1 DEB now!
10-day predictions


NORAD ID: 17728
Int'l Code: 1974-089EX
Perigee: 1,450.6 km
Apogee: 1,621.8 km
Inclination: 101.6 °
Period: 116.6 minutes
Semi major axis: 7907 km
RCS: 0.0286 m2 (small)
Launch date: November 15, 1974
Source: United States (US)
Launch site: AIR FORCE WESTERN TEST RANGE (AFWTR)

Note: This is SATELLITE DEBRIS
aabbcc
Your satellite tracking list
Your tracking list is empty




NASA's NSSDC Master Catalog

Two Line Element Set (TLE):
1 17728U 74089EX  19053.75854160 -.00000024 +00000-0 +14070-3 0  9999
2 17728 101.5627 340.5070 0108298 236.7144 150.0193 12.34719516532528
Source of the keplerian elements: AFSPC